Total_Precipitation_Accumulation
0.07 0.07 0.09 0.11 0.11 0.12 0.15 0.23 0.28 0.31 0.38 0.43 0.51 0.59 0.88 1.12 1.23 1.40 1.56 1.78 1.96 2.15 2.23 2.43 2.84 3.11 3.31 3.45 3.68 3.95 4.33 4.72 4.86 4.69 4.65 4.68 4.56 4.39 4.05 3.95 4.12 4.16 3.90 3.91
0.09 0.10 0.10 0.11 0.11 0.12 0.17 0.24 0.32 0.37 0.40 0.42 0.60 0.72 0.93 1.37 1.55 1.52 1.56 1.55 1.60 2.04 2.26 2.51 2.85 3.04 3.02 3.19 3.47 3.86 4.32 4.66 4.59 4.73 4.99 5.01 4.90 4.35 4.06 3.94 4.01 3.90 3.68 3.57
0.09 0.09 0.07 0.09 0.11 0.13 0.17 0.21 0.28 0.35 0.50 0.48 0.62 1.07 1.21 1.49 1.64 1.50 1.44 1.45 1.41 1.60 1.93 2.09 2.31 2.54 2.75 3.16 3.59 3.93 4.26 4.40 4.44 4.69 4.88 4.64 4.51 4.10 4.03 4.02 3.96 3.76 3.63 3.56
0.07 0.08 0.07 0.09 0.12 0.13 0.19 0.17 0.20 0.29 0.50 0.65 0.72 1.40 1.65 1.84 1.74 1.43 1.44 1.49 1.59 1.71 1.79 1.91 1.99 2.32 2.72 3.13 3.71 4.15 4.18 4.26 4.15 4.34 4.51 4.38 4.08 3.88 3.78 3.78 3.59 3.51 3.40 3.34
0.10 0.09 0.11 0.10 0.10 0.10 0.15 0.15 0.17 0.27 0.41 0.64 0.77 1.21 1.71 1.79 1.73 1.37 1.26 1.46 1.68 1.66 1.70 1.93 1.91 2.13 2.42 2.84 3.26 3.70 4.06 4.14 3.98 3.97 4.09 4.26 4.08 3.80 3.57 3.44 3.40 3.39 3.39 3.22
0.11 0.10 0.11 0.11 0.11 0.11 0.12 0.17 0.27 0.40 0.62 1.04 0.81 0.93 1.39 1.66 1.56 1.28 1.27 1.39 1.56 1.71 1.70 1.86 2.14 2.22 2.38 2.66 3.05 3.32 3.54 3.53 3.51 3.51 3.59 3.72 3.78 3.75 3.51 3.30 3.34 3.34 3.24 3.13
0.22 0.23 0.18 0.14 0.14 0.13 0.14 0.29 0.75 1.17 1.44 1.24 0.83 0.92 1.31 1.28 1.09 1.01 1.09 1.34 1.58 1.85 1.85 1.87 2.07 2.21 2.32 2.43 2.63 2.80 2.87 2.93 2.92 2.97 2.97 2.99 3.12 3.21 3.11 3.03 3.10 3.14 3.08 2.99
0.32 0.33 0.23 0.19 0.16 0.16 0.18 0.33 0.79 1.07 1.19 1.09 0.99 1.22 1.31 1.06 0.92 0.93 1.01 1.18 1.46 1.63 1.67 1.76 1.85 1.81 1.83 1.89 2.03 2.18 2.27 2.31 2.28 2.38 2.51 2.53 2.74 2.78 2.81 2.94 2.81 2.87 2.84 2.85
0.19 0.20 0.20 0.19 0.19 0.19 0.26 0.36 0.38 0.60 0.74 1.13 1.33 1.43 1.33 1.01 1.16 1.13 1.22 1.26 1.26 1.32 1.36 1.38 1.41 1.48 1.59 1.63 1.71 1.82 1.93 1.97 1.91 2.00 2.17 2.22 2.29 2.45 2.58 2.69 2.57 2.44 2.52 2.45
0.12 0.16 0.18 0.15 0.16 0.19 0.28 0.41 0.55 0.80 1.08 1.28 1.44 1.70 1.88 1.65 1.61 1.51 1.62 1.75 1.44 1.17 1.19 1.22 1.21 1.26 1.30 1.35 1.50 1.66 1.76 1.94 1.98 2.00 2.09 1.98 2.07 2.18 2.36 2.44 2.30 2.30 2.43 2.42
0.11 0.14 0.20 0.22 0.20 0.24 0.38 0.47 0.57 0.73 0.86 1.17 1.57 1.79 1.53 1.72 1.78 1.71 1.58 1.56 1.41 1.06 0.97 1.07 1.01 1.04 1.12 1.19 1.33 1.51 1.77 1.97 1.96 1.82 1.92 1.97 1.94 2.02 2.11 2.16 2.07 2.18 2.30 2.46
0.14 0.15 0.21 0.25 0.24 0.23 0.33 0.48 0.58 0.77 0.87 0.97 1.26 1.56 1.16 1.35 1.35 1.24 1.26 1.11 1.03 0.96 0.78 0.89 0.94 0.90 0.96 1.02 1.15 1.34 1.56 1.75 1.80 1.75 1.78 1.92 2.00 1.96 1.91 1.87 1.91 1.97 2.02 2.10
0.17 0.21 0.36 0.56 0.51 0.35 0.31 0.33 0.41 0.51 0.67 0.78 1.13 1.47 1.05 1.09 1.16 1.12 1.07 1.05 0.91 0.96 0.88 0.83 0.94 0.98 0.94 0.96 1.10 1.29 1.36 1.59 1.83 1.84 1.85 1.97 1.91 1.82 1.84 1.98 2.05 2.02 2.02 2.06
0.17 0.21 0.33 0.59 0.63 0.50 0.40 0.38 0.40 0.45 0.61 0.64 0.76 1.13 1.13 1.14 1.16 1.20 1.13 0.98 0.85 0.89 0.96 0.88 0.88 0.89 0.81 0.86 1.01 1.18 1.29 1.46 1.67 1.84 1.94 2.07 1.98 1.96 2.04 2.16 2.24 2.19 2.09 2.10
0.16 0.17 0.20 0.30 0.37 0.38 0.35 0.36 0.37 0.41 0.46 0.59 0.67 0.87 1.03 1.04 1.09 1.23 1.13 1.00 0.96 0.87 0.86 0.88 0.82 0.75 0.72 0.75 0.86 1.06 1.25 1.41 1.57 1.84 1.97 2.07 2.13 2.13 2.16 2.18 2.26 2.25 2.14 2.12
0.22 0.23 0.27 0.35 0.39 0.43 0.39 0.38 0.35 0.34 0.32 0.38 0.57 0.85 0.85 0.82 0.89 1.05 1.06 1.13 1.11 0.99 0.83 0.77 0.77 0.79 0.79 0.74 0.77 0.85 1.02 1.24 1.42 1.68 1.85 1.92 2.05 2.18 2.18 2.15 2.20 2.21 2.25 2.29
0.28 0.33 0.43 0.49 0.52 0.61 0.64 0.50 0.48 0.47 0.43 0.48 0.73 0.88 0.74 0.75 0.79 0.83 0.89 1.03 1.02 0.99 1.06 1.05 0.96 0.97 0.89 0.87 0.91 0.92 0.94 1.14 1.36 1.55 1.72 1.85 1.98 2.07 2.11 2.07 2.17 2.29 2.27 2.20
0.34 0.43 0.49 0.52 0.71 1.01 0.77 0.50 0.44 0.45 0.51 0.48 0.58 0.66 0.63 0.69 0.70 0.76 0.90 0.93 0.91 0.82 0.84 1.00 1.06 1.08 1.05 0.98 1.06 1.07 1.10 1.22 1.43 1.63 1.76 1.85 1.99 2.04 2.07 2.06 2.03 2.05 2.05 2.03
0.33 0.48 0.59 0.66 0.80 0.84 0.75 0.60 0.58 0.59 0.67 0.51 0.53 0.61 0.66 0.74 0.80 0.91 0.83 0.81 0.88 0.83 0.90 0.96 1.03 1.09 1.22 1.25 1.27 1.31 1.42 1.52 1.55 1.66 1.81 1.93 2.03 2.05 2.04 2.06 2.01 2.04 2.03 1.97
0.37 0.48 0.66 0.72 0.99 1.11 0.90 0.66 0.67 0.78 1.18 0.81 0.68 0.78 0.86 0.85 1.13 1.20 0.84 0.87 1.02 0.89 0.88 0.96 1.03 1.06 1.22 1.37 1.44 1.47 1.57 1.70 1.68 1.72 1.82 1.93 2.02 2.14 2.09 2.18 2.23 2.19 2.10 2.01
0.70 0.73 0.76 0.78 1.05 1.18 0.83 0.65 0.78 1.45 1.65 1.00 0.87 0.92 1.00 1.06 1.08 1.02 0.87 0.98 1.14 1.02 0.94 0.89 0.99 1.25 1.35 1.44 1.57 1.63 1.59 1.62 1.65 1.79 1.91 2.00 2.08 2.15 2.13 2.19 2.23 2.23 2.16 2.13
1.03 1.03 0.97 1.06 1.40 1.54 0.94 0.86 1.23 1.43 1.13 1.06 0.99 0.95 0.97 0.97 0.93 0.88 0.84 0.93 1.03 1.13 1.19 1.23 1.32 1.43 1.46 1.50 1.65 1.77 1.78 1.72 1.81 1.90 1.90 1.98 2.12 1.96 1.95 2.18 2.25 2.27 2.29 2.25
1.15 1.22 1.29 1.37 1.52 1.37 1.25 1.26 1.28 1.15 1.22 1.17 1.04 0.98 0.95 0.95 0.95 0.96 0.93 0.88 1.00 1.18 1.23 1.28 1.32 1.34 1.41 1.51 1.64 1.85 1.91 1.85 1.83 1.91 1.95 1.97 2.02 2.12 2.19 2.24 2.31 2.29 2.24 2.21
1.33 1.21 1.46 1.64 1.60 1.46 1.47 1.41 1.33 1.27 1.28 1.19 1.09 1.10 1.03 1.05 1.19 1.16 1.13 1.09 1.01 1.03 1.07 1.12 1.24 1.26 1.41 1.57 1.75 1.97 2.01 1.95 1.96 2.03 2.13 2.11 2.08 2.12 2.29 2.45 2.45 2.37 2.22 2.25
1.59 1.57 1.76 2.03 1.95 1.71 1.54 1.35 1.24 1.20 1.15 1.09 1.09 1.14 1.16 1.13 1.26 1.30 1.38 1.39 1.29 1.16 1.15 1.26 1.42 1.53 1.60 1.67 1.72 1.87 2.04 2.14 2.22 2.24 2.23 2.25 2.27 2.31 2.39 2.39 2.38 2.37 2.32 2.27
1.63 1.88 2.19 2.33 1.95 1.77 1.74 1.54 1.45 1.25 1.16 1.13 1.13 1.12 1.17 1.17 1.23 1.23 1.34 1.48 1.46 1.46 1.52 1.49 1.50 1.65 1.72 1.73 1.78 1.89 2.11 2.37 2.57 2.53 2.42 2.42 2.42 2.44 2.42 2.45 2.30 2.17 2.09 2.04